TimeCST,TemperatureF,Dew PointF,Humidity,Sea Level PressureIn,VisibilityMPH,Wind Direction,Wind SpeedMPH,Gust SpeedMPH,PrecipitationIn,Events,Conditions,WindDirDegrees,DateUTC
12:24 AM,16.0,6.1,65,30.09,10.0,NW,21.9,25.3,N/A,,Mostly Cloudy,310,2013-12-05 06:24:00
12:35 AM,16.0,5.0,62,30.06,10.0,NW,21.9,32.2,N/A,,Scattered Clouds,320,2013-12-05 06:35:00
12:54 AM,16.0,6.1,65,30.13,10.0,WNW,19.6,-,N/A,,Mostly Cloudy,300,2013-12-05 06:54:00
1:54 AM,12.9,1.9,62,30.17,10.0,WNW,26.5,34.5,N/A,,Clear,300,2013-12-05 07:54:00
2:54 AM,12.0,1.0,61,30.21,10.0,WNW,20.7,32.2,N/A,,Clear,300,2013-12-05 08:54:00
3:54 AM,10.0,1.0,67,30.22,10.0,WNW,19.6,26.5,N/A,,Clear,300,2013-12-05 09:54:00
4:54 AM,9.0,-0.0,67,30.25,10.0,WNW,15.0,-,N/A,,Clear,300,2013-12-05 10:54:00
5:54 AM,8.1,-0.9,67,30.27,10.0,WNW,11.5,-,N/A,,Clear,300,2013-12-05 11:54:00
6:54 AM,7.0,-0.9,70,30.28,10.0,NW,10.4,-,N/A,,Clear,310,2013-12-05 12:54:00
7:54 AM,7.0,-0.9,70,30.31,10.0,NW,11.5,-,N/A,,Clear,310,2013-12-05 13:54:00
8:54 AM,8.1,-0.9,67,30.34,10.0,NW,15.0,-,N/A,,Clear,310,2013-12-05 14:54:00
9:54 AM,10.9,-0.0,61,30.35,10.0,NW,20.7,-,N/A,,Clear,310,2013-12-05 15:54:00
10:54 AM,14.0,1.0,56,30.36,10.0,NW,19.6,-,N/A,,Clear,320,2013-12-05 16:54:00
11:54 AM,14.0,-0.0,54,30.35,10.0,NW,16.1,-,N/A,,Clear,310,2013-12-05 17:54:00
12:54 PM,16.0,-0.0,49,30.34,10.0,NW,16.1,-,N/A,,Clear,320,2013-12-05 18:54:00
1:54 PM,17.1,-0.9,45,30.33,10.0,NNW,17.3,-,N/A,,Clear,330,2013-12-05 19:54:00
2:54 PM,16.0,-2.9,43,30.33,10.0,NW,19.6,26.5,N/A,,Clear,320,2013-12-05 20:54:00
3:54 PM,15.1,-2.9,45,30.35,10.0,NNW,17.3,-,N/A,,Clear,330,2013-12-05 21:54:00
4:54 PM,12.9,-4.0,47,30.40,10.0,NW,13.8,-,N/A,,Clear,320,2013-12-05 22:54:00
5:54 PM,10.0,-2.9,56,30.43,10.0,NW,9.2,-,N/A,,Clear,320,2013-12-05 23:54:00
6:54 PM,7.0,-4.0,61,30.46,10.0,NW,6.9,-,N/A,,Clear,320,2013-12-06 00:54:00
7:54 PM,7.0,-2.9,64,30.47,10.0,NW,11.5,-,N/A,,Clear,320,2013-12-06 01:54:00
8:54 PM,8.1,-5.1,55,30.47,10.0,NNW,13.8,-,N/A,,Clear,330,2013-12-06 02:54:00
9:54 PM,7.0,-5.1,58,30.49,10.0,NNW,11.5,-,N/A,,Clear,330,2013-12-06 03:54:00
10:54 PM,7.0,-6.0,55,30.51,10.0,NW,13.8,-,N/A,,Mostly Cloudy,320,2013-12-06 04:54:00
11:54 PM,6.1,-6.0,58,30.51,10.0,NNW,10.4,-,N/A,,Overcast,330,2013-12-06 05:54:00